TimeCST,TemperatureF,Dew PointF,Humidity,Sea Level PressureIn,VisibilityMPH,Wind Direction,Wind SpeedMPH,Gust SpeedMPH,PrecipitationIn,Events,Conditions,WindDirDegrees,DateUTC
12:53 AM,35.1,32.0,89,30.23,9.0,Calm,Calm,-,N/A,,Clear,0,2013-03-08 06:53:00
1:53 AM,34.0,28.9,82,30.23,7.0,Calm,Calm,-,N/A,,Clear,0,2013-03-08 07:53:00
2:53 AM,33.1,30.9,92,30.22,5.0,Calm,Calm,-,N/A,,Clear,0,2013-03-08 08:53:00
3:53 AM,33.1,30.0,89,30.23,5.0,Calm,Calm,-,N/A,,Clear,0,2013-03-08 09:53:00
4:53 AM,32.0,28.9,88,30.25,4.0,Calm,Calm,-,N/A,,Clear,0,2013-03-08 10:53:00
5:53 AM,32.0,28.9,88,30.26,5.0,Calm,Calm,-,N/A,,Clear,0,2013-03-08 11:53:00
6:12 AM,30.2,28.4,93,30.26,2.5,Calm,Calm,-,N/A,,Clear,0,2013-03-08 12:12:00
6:25 AM,30.2,28.4,93,30.26,3.0,Calm,Calm,-,N/A,,Clear,0,2013-03-08 12:25:00
6:53 AM,34.0,32.0,92,30.27,3.0,Calm,Calm,-,N/A,,Clear,0,2013-03-08 12:53:00
7:53 AM,46.0,36.0,68,30.29,7.0,ENE,4.6,-,N/A,,Clear,70,2013-03-08 13:53:00
8:53 AM,53.1,33.1,47,30.30,10.0,NNE,5.8,-,N/A,,Clear,20,2013-03-08 14:53:00
9:53 AM,59.0,32.0,36,30.29,10.0,Variable,5.8,-,N/A,,Clear,0,2013-03-08 15:53:00
10:53 AM,64.0,28.0,26,30.27,10.0,NNE,8.1,-,N/A,,Clear,20,2013-03-08 16:53:00
11:53 AM,66.9,23.0,19,30.25,10.0,NNW,8.1,-,N/A,,Clear,340,2013-03-08 17:53:00
12:53 PM,69.1,19.0,15,30.21,10.0,Variable,4.6,-,N/A,,Clear,0,2013-03-08 18:53:00
1:53 PM,71.1,18.0,13,30.19,9.0,NNE,8.1,-,N/A,,Clear,30,2013-03-08 19:53:00
2:53 PM,72.0,18.0,13,30.18,10.0,North,8.1,-,N/A,,Mostly Cloudy,10,2013-03-08 20:53:00
3:53 PM,72.0,19.0,13,30.18,10.0,NNE,6.9,-,N/A,,Scattered Clouds,30,2013-03-08 21:53:00
4:53 PM,70.0,21.0,16,30.18,10.0,Calm,Calm,-,N/A,,Scattered Clouds,0,2013-03-08 22:53:00
5:53 PM,60.1,27.0,28,30.20,10.0,Calm,Calm,-,N/A,,Clear,0,2013-03-08 23:53:00
6:53 PM,54.0,30.9,41,30.21,10.0,Variable,3.5,-,N/A,,Clear,0,2013-03-09 00:53:00
7:53 PM,51.1,34.0,52,30.21,10.0,NE,4.6,-,N/A,,Clear,50,2013-03-09 01:53:00
8:53 PM,48.9,36.0,61,30.21,10.0,Calm,Calm,-,N/A,,Clear,0,2013-03-09 02:53:00
9:53 PM,46.9,37.0,68,30.22,10.0,Calm,Calm,-,N/A,,Clear,0,2013-03-09 03:53:00
10:53 PM,45.0,37.0,74,30.22,10.0,Calm,Calm,-,N/A,,Clear,0,2013-03-09 04:53:00
11:12 PM,46.4,37.4,71,30.22,2.5,Calm,Calm,-,N/A,,Haze,0,2013-03-09 05:12:00
11:16 PM,48.2,37.4,66,30.22,1.2,Calm,Calm,-,N/A,,Haze,0,2013-03-09 05:16:00
11:31 PM,46.4,37.4,71,30.21,2.5,Calm,Calm,-,N/A,,Haze,0,2013-03-09 05:31:00
11:45 PM,46.4,37.4,71,30.20,4.0,Calm,Calm,-,N/A,,Haze,0,2013-03-09 05:45:00
11:53 PM,46.0,37.9,73,30.20,3.0,Calm,Calm,-,N/A,,Haze,0,2013-03-09 05:53:00